Weather in Tabachny

Russia / Republic of Adygea     44°33′23″N   40°05′32″E
temp.,
°C
wind,
m/s
gust,
m/s
humid.,
%
clouds,
%
prec.,
mm/h
press.,
hPa
HPBL,
m
18 may, tue
tue1800:00+13s0197100 0.4 101014
03:00+13nw1197100 0.6 101119
06:00+12ssw129736 0.1 101155
09:00+19wnw23655 0.1 1011718
12:00+20ene226825 1.5 1010662
15:00+22ne23638 3.3 10091119
18:00+18ene36836 0.9 1010187
21:00+14ese239638 1.6 101064
19 may, wed
wed1900:00+12sse2294100 0.2 100847
03:00+12ssw3795100 0.9 1009140
06:00+12w119878 2.4 101060
09:00+10wsw61596100 8.9 1013874
12:00+20wsw813415 0.3 10132080
15:00+20sw8154350 0.3 10142289
18:00+17sw6164732 0.0 10142044
21:00+14ssw411485 0.0 1015723
20 may, thu
thu2000:00+9sse22655 0.0 101621
03:00+8sse226531 0.0 101621
06:00+10se11670 0.0 101619
09:00+19ene23439 0.0 1015545
12:00+24nne22335 0.0 10131447
15:00+24ne4337100 0.0 10121462
18:00+21ene4860100 0.0 1012560
21:00+16ese311794 0.0 1012227
21 may, fri
fri2100:00+13se22842 0.0 101025
03:00+14se22483 0.0 101015
06:00+15se22530 0.0 101020
09:00+27e25350 0.0 1008288
12:00+32ene45240 0.0 10061059
15:00+32ne433436 0.0 1005858
18:00+27ne22715 0.0 100558
21:00+20ssw22890 0.0 100515
22 may, sat
sat2200:00+18s2277100 0.0 100518
03:00+18se226139 0.0 100416
06:00+17ssw2262100 0.0 100524
09:00+22ssw41062100 0.1 1008487
12:00+26ne1253100 0.0 1006307
15:00+28nne3252100 0.0 10071178
18:00+25ene366898 0.0 1007492
21:00+20wnw1189100 0.1 100931